Location: Unspecified
(40.8819°N, 0.0000°E)
Time: 14:19:27
(UTC+00:00)

VELOX 1 - Pass Details

Date: 25 April 2024
Orbit: 600 x 611 km, 98.3° (Epoch: 09 September)

Event Time Altitude Azimuth Distance (km) Brightness Sun altitude
Rises 19:11:04 0° 27° (NNE) 2,942 ? -4.4°
Reaches altitude 10° 19:13:40 10° 42° (NE) 2,028 ? -4.9°
Maximum altitude 19:17:12 23° 95° (E) 1,342 ? -5.5°
Drops below altitude 10° 19:20:43 10° 149° (SSE) 2,011 ? -6.1°
Sets 19:23:16 0° 163° (SSE) 2,909 ? -6.6°
